Wind_Speed
27 27 28 28 28 27 28 28 28 29 30 29 28 28 29 28 28 28 28 28 27 27 26 25 26 25 25 24 25 24 25 25 25 26 26 25 25 25 25 26 27 28 28
27 28 29 29 29 29 29 29 29 30 29 28 28 28 29 29 28 28 28 28 27 27 26 26 26 25 24 24 25 25 25 25 25 26 26 25 26 26 26 27 27 28 29
27 28 28 28 29 29 29 29 29 29 29 28 28 28 30 30 30 30 29 27 27 26 26 26 25 24 24 24 25 25 26 26 26 26 26 25 25 26 26 27 27 28 29
27 27 28 28 29 29 29 29 29 29 29 29 30 29 29 29 29 28 27 27 27 26 24 24 24 24 24 24 24 24 25 26 25 26 26 26 26 27 26 27 27 28 28
28 28 29 29 29 29 29 29 29 28 29 29 29 29 29 28 27 27 27 27 26 25 24 23 23 24 24 24 24 24 25 24 24 24 25 26 27 27 26 26 27 27 28
28 28 29 29 29 29 29 29 29 29 29 29 28 28 28 27 26 26 26 25 24 24 23 23 23 23 23 23 23 24 24 24 24 24 25 26 26 26 27 27 27 27 28
27 28 29 29 29 28 29 29 29 28 28 28 28 27 27 25 24 24 24 22 23 23 22 22 23 23 23 23 24 24 24 24 24 24 25 25 25 26 27 27 28 28 28
27 28 28 29 29 29 29 30 29 29 28 28 27 26 25 24 24 22 22 21 21 21 22 22 22 23 22 23 23 23 24 24 25 25 25 25 26 26 26 27 27 27 27
27 28 28 29 29 30 30 29 29 28 28 29 28 26 25 25 23 21 20 20 20 20 20 21 22 22 22 22 22 21 22 23 24 25 26 26 25 26 25 25 26 27 27
28 28 29 29 29 29 30 29 29 28 27 27 27 26 26 24 22 20 20 19 19 20 21 21 21 21 21 21 20 21 21 22 23 24 25 25 25 25 25 25 25 26 26
27 28 28 29 30 30 29 29 29 28 26 25 25 25 24 23 21 19 19 18 18 20 20 19 20 20 19 19 19 20 20 21 21 22 22 23 24 24 24 24 24 25 26
27 28 29 29 29 29 28 27 27 27 26 24 24 23 21 20 20 20 18 17 18 18 18 18 18 18 18 18 19 20 21 21 21 21 22 22 23 23 23 24 24 25 26
28 29 28 28 29 28 28 27 25 24 24 24 24 23 21 20 19 19 18 18 18 18 18 18 18 18 18 18 19 20 21 21 22 22 22 21 22 22 22 23 23 23 24
28 28 28 28 28 27 27 26 25 24 24 23 24 23 21 20 20 19 18 17 17 18 18 18 18 19 19 19 19 20 20 20 21 22 21 20 21 21 22 22 22 22 22
26 27 28 28 28 27 26 25 25 24 24 23 23 22 21 19 18 18 17 16 17 17 17 17 18 19 19 18 19 19 20 20 21 20 20 19 20 20 21 22 22 22 22
26 26 26 27 27 26 26 25 24 24 23 21 20 20 20 18 18 17 16 16 16 16 17 18 18 18 18 18 18 18 19 19 18 18 17 18 19 20 21 21 22 22 21
26 26 26 26 25 25 25 25 23 22 21 20 19 19 18 16 16 16 15 15 14 15 16 16 17 17 16 16 17 18 18 18 17 17 17 18 19 20 20 20 21 21 21
26 26 26 26 26 26 25 24 23 22 21 20 18 17 16 16 16 15 14 13 13 13 14 15 15 15 15 15 16 17 17 16 17 17 18 19 20 20 20 21 21 20 20
26 26 26 25 25 25 24 22 22 21 20 19 18 17 16 16 15 14 13 13 13 13 14 14 14 15 15 16 16 16 16 16 17 18 19 19 19 19 20 20 19 19 19
25 26 26 25 25 24 22 22 21 20 18 18 17 16 16 16 14 13 13 12 12 13 13 13 14 14 15 15 16 16 16 17 18 18 19 19 19 19 19 19 18 18 18
25 25 25 25 24 23 22 21 20 18 18 17 17 16 16 15 14 13 12 12 12 12 13 14 14 14 15 15 15 16 17 18 18 19 19 19 19 19 18 17 17 17 17
25 25 25 24 24 23 22 20 19 17 17 17 16 15 14 14 13 11 11 11 12 13 13 13 14 15 15 15 16 17 18 18 19 19 20 20 19 19 18 18 17 17 17
24 24 24 24 23 22 20 18 16 15 16 16 15 14 13 12 12 11 10 11 12 12 13 13 14 14 15 16 16 17 17 17 17 18 19 19 19 19 18 18 17 17 17
23 23 23 23 22 20 18 17 15 14 14 13 13 12 11 10 10 9 10 11 11 12 13 13 13 14 15 15 15 16 16 17 17 18 18 19 19 19 19 19 19 18 18
24 23 22 21 20 19 17 16 14 13 13 12 12 10 10 10 9 9 10 11 11 13 13 13 13 14 14 14 14 15 15 16 17 17 18 18 19 19 19 19 19 19 19
23 21 20 19 18 17 16 14 13 12 11 10 10 9 8 8 9 9 10 11 12 13 13 13 13 13 13 14 14 15 16 17 17 17 18 18 19 19 20 20 19 19 19
Wind_Direction
306 305 305 306 306 307 307 305 303 303 301 300 299 298 297 295 294 295 294 294 292 289 290 289 287 285 283 281 280 276 273 273 273 274 272 271 270 269 268 267 266 264 262
305 306 306 306 307 308 306 306 304 303 301 301 301 297 297 297 295 294 293 293 292 291 290 288 287 284 282 280 280 280 275 273 273 274 272 270 269 270 269 266 265 263 262
306 307 307 307 306 306 305 305 305 303 303 301 300 297 297 296 294 293 291 290 290 291 289 286 284 282 281 281 280 279 276 273 273 273 273 271 267 267 268 268 267 265 263
307 307 307 307 308 307 305 304 305 304 303 303 300 298 296 295 293 291 290 289 289 289 288 288 283 281 281 281 280 279 278 275 273 273 272 271 269 268 267 268 267 266 264
308 308 307 306 307 307 307 306 307 309 306 302 300 300 301 296 293 289 289 289 288 287 287 288 288 284 281 281 282 280 278 279 277 274 272 271 272 271 269 267 267 267 265
309 309 309 308 307 307 307 307 309 310 310 307 305 301 302 298 295 293 292 291 289 288 289 290 291 289 286 285 284 283 282 281 278 276 275 274 273 272 272 271 270 269 266
311 311 311 310 308 308 308 307 308 309 310 309 307 305 303 301 297 295 295 294 293 289 288 290 290 290 287 284 284 283 281 280 280 280 280 279 276 275 274 273 272 270 267
311 311 311 311 310 310 309 307 306 307 308 308 308 306 304 303 301 299 297 296 295 294 291 289 290 290 288 285 285 282 281 280 281 282 281 281 280 278 276 275 274 271 268
310 311 311 311 311 310 309 308 305 305 306 308 309 308 305 303 301 300 300 299 298 295 291 291 292 291 290 289 290 287 285 283 281 281 281 282 281 281 279 277 276 272 269
310 311 311 311 310 309 308 308 307 306 306 307 307 308 306 304 301 301 302 301 300 297 293 291 290 290 291 291 289 290 289 286 285 282 282 283 282 282 281 278 277 273 270
310 311 311 310 310 309 309 307 306 305 304 306 309 309 308 307 306 304 302 301 301 300 298 295 294 294 293 291 292 292 291 290 290 289 287 285 283 283 282 280 278 276 272
311 310 310 310 310 309 309 310 308 305 305 306 308 308 308 308 306 303 302 301 300 300 302 301 298 298 297 296 295 292 293 293 293 293 293 290 288 288 282 281 279 277 274
311 311 311 312 311 310 310 310 309 307 307 309 307 307 307 307 306 304 302 301 300 300 300 300 300 300 301 300 300 300 298 296 295 293 291 292 293 293 288 286 284 281 279
312 313 313 314 314 313 311 310 309 311 309 308 308 306 306 307 307 307 304 303 302 303 302 305 303 303 302 303 304 304 301 300 298 294 293 294 294 293 291 291 289 285 283
314 314 314 314 314 315 314 312 309 312 312 310 309 308 308 306 305 306 305 306 304 304 304 305 306 307 306 305 305 304 303 302 300 298 296 296 296 296 293 293 291 289 286
314 315 317 317 317 317 317 315 313 314 315 315 312 309 310 309 305 305 305 306 307 308 309 309 310 310 310 308 307 306 307 306 306 306 304 303 299 299 295 295 294 293 290
314 314 316 317 317 318 317 315 315 317 318 316 312 311 309 310 308 304 305 306 307 311 313 314 314 313 311 310 310 309 309 311 312 312 311 309 305 303 300 298 296 293 290
315 318 317 317 317 318 317 316 316 318 316 316 314 311 308 310 309 308 307 308 311 314 317 319 318 319 317 315 314 312 313 315 316 316 316 315 311 307 305 303 299 296 293
317 319 319 318 319 319 318 316 320 319 317 319 318 315 313 313 312 310 309 311 315 320 322 321 321 320 318 317 316 317 319 321 320 320 319 318 316 313 313 310 305 301 297
320 322 321 319 319 319 317 316 320 320 319 321 322 320 318 319 315 313 312 315 318 319 320 320 322 322 321 320 320 321 320 321 322 322 322 321 320 319 318 314 309 306 303
321 322 323 323 321 319 317 317 320 321 321 322 324 322 321 321 319 318 318 318 319 319 320 321 323 324 324 324 323 322 323 324 325 326 327 327 325 323 321 317 313 310 307
321 322 323 323 322 321 321 320 321 321 322 324 325 325 326 325 326 324 321 319 317 317 319 321 324 326 326 327 327 325 325 326 328 330 330 330 327 326 324 320 318 317 314
320 321 322 323 323 324 323 322 322 322 324 325 326 329 328 328 328 325 323 322 322 319 320 321 324 326 327 327 327 328 329 332 333 333 334 334 333 331 329 326 323 321 319
320 321 322 323 324 325 325 324 323 321 323 323 325 327 330 332 332 330 330 331 330 328 326 326 328 328 328 329 330 332 333 334 336 336 336 337 337 337 336 331 326 323 322
317 319 320 322 323 325 325 324 323 323 325 326 328 331 334 335 337 336 337 336 334 332 332 332 332 333 333 335 337 337 338 339 339 338 338 337 337 338 337 335 330 327 324
314 315 317 318 321 325 326 325 322 323 327 332 335 335 334 334 337 339 340 339 339 336 336 337 337 339 339 339 338 339 340 340 340 341 342 341 340 341 340 338 334 331 328
Height
5837 5833 5830 5827 5824 5821 5818 5814 5811 5808 5806 5803 5801 5799 5796 5794 5792 5790 5788 5786 5784 5782 5780 5779 5778 5777 5775 5774 5774 5773 5773 5772 5772 5771 5771 5771 5770 5771 5771 5771 5771 5771 5772
5832 5828 5825 5822 5818 5815 5812 5808 5805 5802 5799 5796 5794 5792 5790 5787 5785 5782 5781 5779 5777 5776 5774 5772 5771 5770 5768 5767 5767 5766 5765 5765 5765 5764 5764 5764 5764 5764 5764 5764 5764 5764 5764
5827 5823 5820 5816 5813 5809 5806 5803 5799 5796 5793 5790 5787 5785 5783 5780 5778 5776 5774 5772 5771 5769 5767 5765 5764 5763 5761 5761 5760 5759 5758 5758 5758 5757 5757 5757 5757 5757 5757 5756 5756 5756 5756
5821 5818 5814 5811 5807 5803 5800 5796 5793 5790 5787 5784 5780 5777 5775 5773 5771 5769 5767 5765 5764 5762 5761 5759 5758 5756 5755 5754 5753 5752 5751 5750 5750 5750 5749 5749 5749 5749 5750 5749 5748 5748 5748
5816 5812 5809 5805 5801 5798 5794 5791 5787 5784 5780 5777 5774 5770 5767 5765 5763 5762 5760 5758 5757 5755 5754 5752 5751 5750 5749 5748 5746 5745 5744 5743 5742 5742 5742 5742 5742 5741 5741 5742 5741 5741 5741
5811 5807 5803 5799 5795 5792 5788 5785 5781 5777 5774 5770 5767 5764 5761 5758 5756 5755 5753 5751 5750 5748 5747 5746 5745 5744 5742 5741 5740 5739 5738 5737 5736 5735 5735 5735 5734 5734 5734 5733 5733 5733 5733
5805 5802 5798 5794 5790 5786 5782 5779 5775 5771 5768 5765 5761 5758 5755 5751 5749 5748 5746 5745 5743 5742 5741 5740 5738 5737 5736 5735 5733 5732 5730 5730 5729 5728 5728 5727 5726 5726 5726 5725 5725 5725 5725
5800 5796 5792 5788 5784 5780 5776 5772 5769 5765 5762 5759 5755 5752 5749 5746 5744 5742 5741 5739 5737 5736 5735 5734 5733 5731 5730 5728 5726 5725 5724 5723 5722 5722 5721 5720 5719 5718 5718 5717 5717 5717 5717
5794 5790 5786 5782 5777 5773 5769 5765 5762 5759 5756 5752 5749 5746 5744 5741 5739 5737 5735 5733 5732 5730 5729 5728 5727 5725 5724 5722 5720 5719 5717 5716 5716 5715 5714 5713 5712 5711 5710 5709 5709 5709 5708
5788 5784 5780 5776 5771 5767 5763 5759 5756 5753 5750 5747 5744 5741 5738 5735 5733 5731 5729 5727 5726 5725 5724 5723 5721 5719 5717 5716 5714 5713 5711 5710 5709 5708 5707 5706 5705 5704 5703 5702 5701 5700 5700
5782 5778 5774 5769 5765 5761 5757 5753 5750 5747 5744 5741 5739 5736 5732 5729 5727 5725 5723 5722 5721 5720 5718 5717 5715 5713 5712 5710 5709 5707 5706 5704 5703 5701 5700 5699 5697 5696 5695 5694 5693 5692 5692
5776 5772 5768 5763 5758 5754 5751 5747 5744 5741 5738 5736 5733 5730 5727 5724 5722 5720 5719 5718 5716 5715 5713 5712 5710 5708 5706 5705 5703 5702 5700 5699 5697 5696 5694 5693 5691 5689 5688 5686 5686 5684 5683
5771 5766 5762 5757 5753 5748 5745 5742 5738 5736 5733 5730 5728 5725 5723 5720 5718 5716 5714 5713 5712 5711 5709 5707 5705 5703 5701 5700 5698 5696 5695 5693 5691 5689 5688 5686 5684 5683 5681 5680 5678 5677 5675
5765 5761 5756 5752 5747 5743 5740 5736 5733 5731 5728 5725 5722 5719 5717 5716 5713 5712 5710 5708 5707 5706 5704 5702 5700 5698 5696 5694 5693 5691 5689 5687 5685 5683 5681 5680 5678 5676 5675 5673 5671 5669 5668
5760 5756 5751 5747 5743 5739 5735 5731 5727 5725 5722 5719 5717 5715 5713 5710 5709 5707 5706 5704 5703 5701 5699 5697 5695 5693 5691 5689 5688 5686 5683 5681 5679 5677 5675 5673 5671 5670 5668 5666 5664 5662 5660
5755 5751 5747 5742 5738 5734 5730 5726 5723 5721 5717 5715 5712 5710 5708 5706 5704 5703 5701 5700 5698 5697 5695 5692 5690 5688 5686 5685 5682 5680 5678 5676 5673 5671 5669 5667 5665 5663 5662 5659 5657 5655 5653
5750 5746 5742 5738 5733 5729 5725 5722 5719 5716 5713 5711 5709 5706 5704 5701 5699 5698 5697 5695 5693 5693 5691 5688 5686 5684 5682 5680 5678 5676 5674 5671 5668 5666 5664 5662 5659 5657 5655 5653 5651 5649 5646
5745 5741 5737 5733 5729 5725 5721 5717 5715 5711 5709 5707 5704 5702 5700 5698 5696 5694 5692 5691 5690 5689 5687 5685 5682 5680 5679 5676 5674 5672 5670 5667 5664 5662 5659 5657 5654 5652 5650 5648 5645 5643 5641
5740 5736 5732 5728 5724 5720 5716 5713 5710 5708 5705 5703 5701 5698 5696 5694 5692 5690 5689 5688 5687 5685 5684 5682 5680 5678 5676 5673 5671 5668 5666 5664 5661 5658 5655 5653 5650 5647 5644 5642 5640 5638 5636
5736 5732 5727 5723 5719 5715 5712 5709 5707 5704 5702 5699 5697 5695 5692 5690 5688 5687 5686 5685 5684 5682 5681 5679 5677 5675 5673 5671 5668 5665 5663 5660 5657 5655 5651 5649 5646 5643 5640 5637 5635 5633 5631
5732 5727 5723 5719 5715 5711 5708 5705 5703 5701 5698 5696 5694 5692 5690 5688 5686 5685 5684 5682 5681 5680 5678 5676 5674 5672 5670 5667 5665 5662 5659 5657 5654 5651 5648 5645 5642 5638 5635 5632 5630 5628 5626
5727 5723 5719 5715 5711 5707 5704 5701 5699 5698 5696 5693 5691 5689 5687 5685 5683 5682 5681 5680 5679 5677 5675 5674 5671 5669 5667 5664 5662 5659 5656 5653 5650 5647 5644 5641 5638 5635 5631 5628 5626 5623 5621
5723 5719 5715 5712 5708 5704 5700 5698 5697 5695 5693 5691 5689 5687 5685 5683 5682 5681 5679 5678 5676 5674 5673 5671 5669 5666 5664 5661 5659 5656 5653 5650 5647 5644 5641 5637 5634 5631 5628 5625 5622 5619 5616
5720 5716 5712 5709 5705 5701 5698 5696 5694 5692 5691 5689 5687 5686 5684 5682 5680 5679 5677 5676 5674 5672 5671 5668 5666 5664 5661 5658 5656 5653 5650 5647 5644 5641 5638 5635 5631 5628 5624 5621 5618 5615 5612
5716 5713 5709 5706 5702 5699 5696 5694 5692 5690 5689 5687 5686 5684 5682 5681 5680 5678 5676 5675 5673 5671 5669 5666 5664 5661 5659 5656 5654 5651 5648 5645 5642 5639 5635 5632 5629 5625 5622 5618 5614 5611 5608
5712 5709 5706 5703 5700 5697 5694 5692 5690 5689 5687 5686 5684 5683 5682 5681 5679 5678 5676 5674 5672 5669 5667 5664 5662 5659 5657 5654 5652 5649 5646 5643 5639 5636 5633 5629 5626 5622 5618 5615 5611 5607 5604